Weather in Biograd na Moru

Croatia     43°56′26″N   15°26′58″E
temp.,
°C
wind,
m/s
gust,
m/s
humid.,
%
clouds,
%
prec.,
mm/h
press.,
hPa
HPBL,
m
18 october, mon
mon1823:00+12n22725 0.0 102127
02:00+11ne21734 0.0 102216
05:00+10ne21730 0.0 102115
08:00+11ne21725 0.0 102215
11:00+16nnw2251100 0.0 1023427
14:00+18wnw4348100 0.0 1023817
17:00+16nw4562100 0.0 1023326
20:00+13nnw34720 0.0 102459
19 october, tue
tue1923:00+11ne22745 0.0 102619
02:00+10ne22755 0.0 102616
05:00+9ne227598 0.0 102615
08:00+10ne227155 0.0 102717
11:00+16nne114743 0.0 1028317
14:00+19w334366 0.0 1027753
17:00+17wnw335799 0.0 1026302
20:00+13nnw236780 0.0 102738
20 october, wed
wed2023:00+12n116897 0.0 102718
02:00+11ne117072 0.0 102715
05:00+10ene11705 0.0 102715
08:00+11ene11665 0.0 102716
11:00+17sse11510 0.0 1027410
14:00+18ssw32524 0.0 1026739
17:00+17ssw22615 0.0 1025416
20:00+14se22755 0.0 102427
21 october, thu
thu2123:00+13ese457517 0.0 102385
02:00+12ese34785 0.0 102261
05:00+11e338232 0.0 102149
08:00+12e348071 0.0 102099
11:00+18se697159 0.1 1021943
14:00+19sse776461 0.4 1019931
17:00+17sse6971100 0.0 1018696
20:00+16se6118056 0.0 1018482
22 october, fri
fri2223:00+16se7128214 0.0 1017507
02:00+16ese8158278 0.0 1015651
05:00+17se91578100 0.0 1013786
08:00+17se11158067 0.1 1012889
11:00+19sse111471100 0.0 10111139
14:00+19sse11147474 0.1 10091011
17:00+19sse111474100 0.1 1008874
20:00+18sse81379100 3.4 1009610